[[{"header":{"parameterUnit":"m.s-1","parameterCategory":1,"la1":30.2991,"la2":30.254,"lo1":-89.0895,"lo2":-89.0444,"dy":0.0017,"dx":0.0017,"nx":28,"ny":28,"refTime":"2023-10-17T21:00:00:Z","depth":0,"parameterNumber":2,"parameterNumberName":"U-component_of_WINDS"},"data":[0,0,0,0,0,0,0,0,0,0,0,0,0,0,0,0,0,0,0,0,0,0,0,0,0,0,0,0,0,0,0,0,0,0,0,0,0,0,0,0,0,0,0,0,0,0,0,0,0,0,0,0,0,0,0,0,0,0,0.5518,0.5518,0,0.5508,0.5508,0.5508,0.5485,0.5485,0.5484,0.5484,0.5474,0.5474,0.5475,0,0,0,0,0,0,0,0,0,0,0,0,0,0.5517,0.5517,0.5518,0.5518,0.5518,0.5508,0.5508,0.5508,0.5485,0.5485,0.5484,0.5484,0.5474,0.5474,0.5475,0,0,0,0,0,0,0,0,0,0,0,0,0,0.5514,0.5517,0.5518,0.5506,0.5504,0.5508,0.5508,0.5508,0.5485,0.5485,0.5484,0.5483,0.5474,0.5474,0.5475,0.549,0,0,0.5475,0.5475,0,0,0,0,0,0,0,0,0.5514,0.5514,0.5508,0.5507,0.5505,0.5497,0.5504,0.5502,0.5486,0.5493,0.5484,0.5483,0.5482,0.5482,0.5482,0.549,0.5489,0.5475,0.5476,0.5476,0.5476,0,0,0,0,0,0,0,0.5514,0.5514,0.5514,0.5508,0.5506,0.55,0.5499,0.5504,0.5492,0.5492,0.549,0.5489,0.5482,0.5481,0.5481,0.5489,0.5475,0.5476,0.5476,0.5476,0.5507,0.5508,0,0,0,0,0,0,0.5516,0.5514,0.5515,0.5514,0.5508,0.5501,0.5499,0.5501,0.5492,0.5489,0.549,0.5488,0.5481,0.5481,0.5481,0.5497,0.5476,0.5476,0.5476,0.5506,0.5507,0.5508,0,0,0,0,0,0,0.5516,0.5516,0.5515,0.5514,0.5513,0.5501,0.5503,0.5501,0.55,0.549,0.5488,0.5492,0.5481,0.548,0.5487,0.5496,0.5476,0.5476,0.5506,0.5507,0.5508,0.553,0,0,0,0,0,0,0.5516,0.5517,0.5523,0.5514,0.5513,0.5522,0.5504,0.5501,0.5501,0.5499,0.5491,0.5489,0.548,0.5487,0.5488,0.5496,0.5476,0.5505,0.5506,0.5507,0.5528,0.5531,0.5534,0,0,0,0,0,0.5516,0.553,0.5523,0.5523,0.5521,0.5523,0.5522,0.5511,0.5502,0.5507,0.55,0.549,0.5495,0.5488,0.5488,0.5497,0.5504,0.5506,0.5507,0.5527,0.5531,0.5534,0,0,0,0,0,0,0.5541,0.5529,0.5521,0.5532,0.5529,0.5519,0.5526,0.5516,0.5515,0.5513,0.55,0.5498,0.5506,0.5503,0.5495,0.551,0.5498,0.55,0.5513,0.5516,0.5519,0.5519,0.5477,0,0,0,0,0,0.5548,0.555,0.554,0.5551,0.5549,0.5538,0.5538,0.553,0.5526,0.5524,0.5518,0.5514,0.5514,0.5515,0.5516,0.5528,0.5525,0.5534,0.5537,0.5539,0.554,0.5544,0.5547,0.5513,0.5513,0.5513,0,0,0.5562,0.5555,0.5558,0.5555,0.5552,0.5554,0.5537,0.5541,0.5542,0.5525,0.553,0.5525,0.552,0.5529,0.5533,0.5526,0.5549,0.5541,0.5543,0.5543,0.5546,0.5549,0.5552,0.5514,0.5514,0.5514,0,0,0.5588,0.5584,0.5592,0.5588,0.5582,0.5574,0.5576,0.5567,0.5563,0.5568,0.5554,0.5556,0.5558,0.5554,0.5552,0.5575,0.5565,0.5576,0.5591,0.5595,0.5598,0.56,0.5606,0.5609,0.5577,0.5577,0.5577,0,0.5606,0.5609,0.5597,0.5601,0.5599,0.5583,0.559,0.5587,0.5582,0.5581,0.5573,0.5574,0.557,0.5576,0.5581,0.5581,0.5582,0.5576,0.5598,0.56,0.5602,0.5608,0.5611,0.5579,0.5578,0.5578,0.5578,0,0.563,0.5633,0.564,0.5634,0.5633,0.5639,0.5627,0.5628,0.5619,0.5612,0.5616,0.561,0.5608,0.5609,0.5601,0.5614,0.561,0.5601,0.5587,0.5607,0.5612,0.5615,0.558,0.558,0.558,0.5579,0,0,0.5672,0.5658,0.5661,0.5657,0.5648,0.565,0.5654,0.5651,0.5651,0.5648,0.565,0.5651,0.5642,0.564,0.5632,0.5635,0.5651,0.5625,0.5625,0.5629,0.5663,0.5669,0.5672,0.5644,0.5645,0.5645,0.5663,0,0.5695,0.5701,0.569,0.5698,0.5699,0.5683,0.5686,0.5681,0.5674,0.5674,0.5666,0.5666,0.5655,0.5654,0.5657,0.5649,0.5658,0.5647,0.5646,0.5646,0.5646,0.5675,0.5681,0.5698,0.5665,0.5665,0.5665,0,0.5723,0.5719,0.5728,0.5717,0.5717,0.572,0.5715,0.5716,0.5709,0.5703,0.57,0.569,0.5692,0.568,0.5683,0.5676,0.5675,0.5671,0.5671,0.5669,0.5656,0.5672,0.5703,0.5705,0.5669,0.5669,0.5668,0,0.575,0.5748,0.5752,0.5749,0.5737,0.5739,0.5734,0.5727,0.5725,0.5721,0.572,0.5717,0.5714,0.5712,0.57,0.5693,0.5704,0.5691,0.5698,0.5699,0.5701,0.57,0.573,0.5702,0.5702,0.5702,0.5702,0,0.5776,0.5781,0.5763,0.5766,0.5771,0.5757,0.5762,0.5756,0.5749,0.5749,0.5736,0.5737,0.5722,0.5721,0.5712,0.5714,0.5714,0.5709,0.5706,0.571,0.571,0.5708,0.5706,0.5703,0.5703,0.5702,0.5702,0,0.5806,0.5795,0.5798,0.5786,0.5783,0.5787,0.5776,0.5777,0.5769,0.577,0.5769,0.5756,0.5754,0.5742,0.5738,0.5732,0.5737,0.5733,0.5739,0.5737,0.5744,0.5743,0.5772,0.5775,0.5746,0.5747,0.5747,0,0.5823,0.5827,0.5814,0.5813,0.5808,0.5807,0.5805,0.5791,0.579,0.5781,0.5783,0.578,0.5776,0.5773,0.5763,0.5759,0.5754,0.5764,0.5753,0.5755,0.5752,0.5751,0.5751,0.5766,0.5767,0.5767,0.5767,0,0.5853,0.5847,0.5844,0.5839,0.5836,0.5832,0.5826,0.5826,0.5811,0.5809,0.5806,0.5803,0.5798,0.5794,0.5788,0.5783,0.5772,0.5771,0.5772,0.5775,0.5777,0.5774,0.5744,0.577,0.577,0.577,0.577,0.5769,0.5876,0.5877,0.5868,0.5865,0.5859,0.5854,0.5854,0.5845,0.5843,0.5836,0.5829,0.5826,0.5818,0.5809,0.5804,0.5802,0.5796,0.5798,0.5798,0.5799,0.58,0.5779,0.5801,0.5801,0.5801,0.5801,0.5801,0,0.5903,0.5897,0.5894,0.5886,0.5883,0.5873,0.5866,0.5864,0.5862,0.5855,0.5852,0.5847,0.5843,0.5833,0.5827,0.5827,0.5822,0.5826,0.5825,0.5824,0.5806,0.5805,0.583,0.583,0.583,0.583,0.583,0.583,0.5917,0.5919,0.5911,0.5909,0.5902,0.5899,0.5896,0.5891,0.5885,0.588,0.5877,0.587,0.5861,0.5854,0.585,0.5847,0.5845,0.585,0.5845,0.5828,0.5826,0.5823,0.5821,0.585,0.585,0.5863,0.5864,0.5864]},{"header":{"parameterUnit":"m.s-1","parameterCategory":1,"la1":30.2991,"la2":30.254,"lo1":-89.0895,"lo2":-89.0444,"dy":0.0017,"dx":0.0017,"nx":28,"ny":28,"refTime":"2023-10-17T21:00:00:Z","depth":0,"parameterNumber":3,"parameterNumberName":"V-component_of_WINDS"},"data":[0,0,0,0,0,0,0,0,0,0,0,0,0,0,0,0,0,0,0,0,0,0,0,0,0,0,0,0,0,0,0,0,0,0,0,0,0,0,0,0,0,0,0,0,0,0,0,0,0,0,0,0,0,0,0,0,0,0,3.5448,3.5448,0,3.5471,3.5471,3.5471,3.542,3.5418,3.5417,3.5415,3.5436,3.5438,3.544,0,0,0,0,0,0,0,0,0,0,0,0,0,3.5358,3.536,3.5448,3.5448,3.5449,3.547,3.5471,3.5471,3.542,3.5418,3.5416,3.5414,3.5435,3.5437,3.544,0,0,0,0,0,0,0,0,0,0,0,0,0,3.539,3.536,3.5448,3.5426,3.5424,3.547,3.5471,3.5471,3.542,3.5418,3.5416,3.5413,3.5434,3.5437,3.544,3.5508,0,0,3.545,3.5451,0,0,0,0,0,0,0,0,3.5388,3.5394,3.5429,3.5428,3.5426,3.544,3.5446,3.5484,3.5421,3.5422,3.5415,3.5412,3.5439,3.5441,3.5451,3.5509,3.551,3.545,3.5452,3.5453,3.5454,0,0,0,0,0,0,0,3.5386,3.5392,3.5457,3.5429,3.5428,3.5414,3.5416,3.5453,3.5444,3.5422,3.5418,3.5421,3.5437,3.5448,3.5451,3.551,3.545,3.5453,3.5455,3.5456,3.5623,3.5625,0,0,0,0,0,0,3.5387,3.5391,3.5456,3.5458,3.5401,3.5417,3.5419,3.5438,3.5443,3.5442,3.5423,3.5419,3.5444,3.5447,3.5452,3.5529,3.5453,3.5456,3.5458,3.562,3.5623,3.5626,0,0,0,0,0,0,3.5386,3.5394,3.5455,3.5423,3.543,3.5422,3.5442,3.544,3.545,3.5445,3.5442,3.5436,3.5442,3.5447,3.5494,3.5529,3.5457,3.546,3.5617,3.5621,3.5625,3.5686,0,0,0,0,0,0,3.5383,3.5393,3.542,3.5424,3.5432,3.5499,3.5445,3.5442,3.5456,3.545,3.5456,3.5455,3.5441,3.549,3.5497,3.5532,3.5463,3.5614,3.5619,3.5623,3.5681,3.5692,3.5701,0,0,0,0,0,3.538,3.5437,3.5422,3.543,3.5465,3.5501,3.5505,3.5488,3.5459,3.5485,3.5481,3.5454,3.5525,3.5495,3.5503,3.5539,3.5611,3.5617,3.5623,3.5676,3.569,3.5701,0,0,0,0,0,0,3.5436,3.5437,3.542,3.548,3.5491,3.5492,3.5524,3.5503,3.5522,3.5516,3.5494,3.5496,3.5546,3.5548,3.5515,3.5604,3.5563,3.557,3.5601,3.5613,3.5623,3.562,3.5465,0,0,0,0,0,3.5456,3.5486,3.5484,3.5537,3.5543,3.5533,3.5548,3.5534,3.5544,3.5548,3.5548,3.5558,3.5582,3.5598,3.562,3.5682,3.5681,3.5711,3.5721,3.5729,3.5735,3.5765,3.5777,3.5645,3.5645,3.5645,0,0,3.5496,3.55,3.552,3.5548,3.5555,3.5585,3.5537,3.5571,3.5592,3.5553,3.5596,3.5597,3.5606,3.566,3.5684,3.5663,3.5771,3.5736,3.5743,3.5744,3.5772,3.5784,3.5795,3.5649,3.5648,3.5647,0,0,3.5584,3.5592,3.5635,3.5642,3.5653,3.5646,3.5656,3.5661,3.5659,3.5703,3.5673,3.5698,3.574,3.5747,3.5757,3.5846,3.5821,3.5854,3.5905,3.5934,3.5945,3.5954,3.5983,3.5994,3.5861,3.5861,3.5861,0,3.5633,3.5677,3.566,3.5695,3.5707,3.5674,3.5716,3.5724,3.5741,3.575,3.5727,3.5778,3.5782,3.5835,3.5857,3.5867,3.5876,3.5852,3.5945,3.5954,3.5962,3.5989,3.6001,3.5864,3.5864,3.5864,3.5863,0,3.5734,3.5765,3.5799,3.5816,3.5832,3.5871,3.5858,3.5877,3.5862,3.5856,3.59,3.5904,3.5925,3.5937,3.5923,3.5988,3.5974,3.5949,3.5906,3.5978,3.6004,3.6014,3.587,3.5868,3.5867,3.5866,0,0,3.5858,3.5864,3.5876,3.5882,3.5891,3.5914,3.5951,3.5972,3.5986,3.6,3.6028,3.6065,3.604,3.6051,3.6037,3.6063,3.613,3.6034,3.6034,3.6049,3.6199,3.6216,3.6229,3.6115,3.6117,3.6119,3.6197,0,3.5942,3.6005,3.599,3.6052,3.6078,3.6046,3.6078,3.6086,3.6082,3.6103,3.6099,3.6123,3.6091,3.6097,3.6122,3.6117,3.6159,3.6111,3.6139,3.614,3.6135,3.6243,3.6261,3.6335,3.6207,3.6209,3.621,0,3.6049,3.6065,3.613,3.6132,3.6143,3.6171,3.6188,3.6209,3.6217,3.6212,3.6224,3.6204,3.6239,3.6198,3.6244,3.6211,3.6222,3.6221,3.6224,3.6223,3.6178,3.6242,3.6359,3.6369,3.6226,3.6225,3.6224,0,3.6128,3.6167,3.621,3.6216,3.6221,3.6241,3.6244,3.625,3.6262,3.6277,3.6284,3.6303,3.6313,3.6327,3.6313,3.6285,3.636,3.6318,3.6354,3.6355,3.6369,3.6368,3.6487,3.6381,3.6381,3.6381,3.6381,0,3.6223,3.6263,3.6245,3.6271,3.6314,3.6296,3.6339,3.6338,3.6343,3.6367,3.6341,3.6364,3.6345,3.6366,3.6355,3.6393,3.6399,3.6394,3.639,3.6395,3.6395,3.6399,3.6393,3.6384,3.6383,3.6383,3.6382,0,3.6318,3.6308,3.6352,3.6353,3.6353,3.6385,3.6385,3.6408,3.6402,3.6433,3.6439,3.6429,3.6452,3.644,3.6464,3.6457,3.6505,3.6496,3.6502,3.6499,3.6534,3.653,3.6657,3.6672,3.656,3.6561,3.6562,0,3.6377,3.6407,3.641,3.6425,3.6429,3.6453,3.6465,3.6449,3.6463,3.6473,3.6494,3.6516,3.6531,3.657,3.6564,3.6582,3.6571,3.6614,3.6573,3.6576,3.6568,3.6565,3.6567,3.6622,3.6623,3.6624,3.6625,0,3.6483,3.6476,3.6495,3.6513,3.6528,3.6541,3.6552,3.6565,3.6548,3.6565,3.6588,3.6601,3.6625,3.6645,3.666,3.6662,3.664,3.6638,3.6647,3.6651,3.6652,3.6649,3.6522,3.6635,3.6634,3.6633,3.6633,3.6632,3.656,3.6584,3.6589,3.6611,3.6617,3.6627,3.6648,3.6645,3.6664,3.6682,3.6671,3.6698,3.6703,3.6721,3.6726,3.6745,3.6728,3.6741,3.6744,3.6747,3.675,3.6651,3.6749,3.6748,3.6748,3.6748,3.6748,0,3.6661,3.6663,3.6683,3.6698,3.6715,3.6694,3.6704,3.6719,3.6743,3.675,3.6766,3.6792,3.6811,3.6807,3.6825,3.6841,3.6831,3.6846,3.6843,3.6843,3.6767,3.6756,3.6853,3.6853,3.6853,3.6853,3.6853,3.6853,3.6716,3.6754,3.6748,3.6788,3.6789,3.6815,3.6822,3.6831,3.6836,3.6866,3.6882,3.6879,3.6881,3.6898,3.6915,3.6913,3.6919,3.6937,3.6931,3.6859,3.6849,3.6839,3.6828,3.6939,3.6939,3.7006,3.7006,3.7007]}]]